User: anonymous   Login
Location: Newark
(34.1333°N, 7.9667°W)
Time: 03:01:58
(UTC+00:00)
Language:

BUGSAT 1 - Orbit

View from above orbital plane
View from above orbital plane
View from above satellite
View from above satellite

Ground track
Ground track

The orbit data is extracted from the following two-line orbital elements,

1 40014U 14033E   24103.58491970  .00005907  00000-0  43872-3 0  9991
2 40014  98.1330 141.8940 0035862 355.0411   5.0453 15.02935066535787
Epoch (UTC): 12 April 2024 14:02:17
Eccentricity: 0.0035862
inclination: 98.1330°
perigee height: 533 km
apogee height: 583 km
right ascension of ascending node: 141.8940°
argument of perigee: 355.0411°
revolutions per day: 15.02935066
mean anomaly at epoch: 5.0453°
orbit number at epoch: 53578

The dashed part of the orbit path shows where the satellite is in the earth's shadow,  

DLR